Zurück zum Katalog

IUS DEB

LostUNKNOWN
NORAD 43363·DEBRIS·🇺🇸 United States

Gestartet Jul 23, 1999 von Cape Canaveral Space Force Station

Loading…

Nächste Überflüge (nächste 24 Stunden)

TLE

VeraltetSource: Space-Track

Epoche: Dec 7, 2025, 10:52 UTC

1 43363U 99040L   25341.45334931  .00132247  00000-0  57455-1 0  9994
2 43363  28.2503  78.8549 1837010 358.0962   1.3253 11.20591496 56806

Verfolge IUS DEB in Echtzeit mit AllMySat

Download on the App Store